• In Belgium
  • List of Countries
  • For 7 days
  • Water Temperature
  • Satellite Maps
  • Weather Map
  • Weather Widgets
  • user-avatar
    Login

    Hourly Weather Staryj Oskol

    Today, 13 November, Tuesday

    Time Temperature Precipitation Wind Pressure Humidity
    00:00 -9°C° 0 mm 4 mps 762 mmHg 30%
    01:00 -9°C° 0 mm 4 mps 762 mmHg 30%
    02:00 -9°C° 0 mm 4 mps 761 mmHg 31%
    03:00 -9°C° 0 mm 3 mps 761 mmHg 32%
    04:00 -10°C° 0 mm 4 mps 761 mmHg 33%
    05:00 -10°C° 0 mm 4 mps 761 mmHg 33%
    06:00 -11°C° 0 mm 4 mps 761 mmHg 33%
    07:00 -10°C° 0 mm 4 mps 761 mmHg 33%
    08:00 -10°C° 0 mm 4 mps 761 mmHg 33%
    09:00 -10°C° 0 mm 4 mps 761 mmHg 32%
    10:00 -9°C° 0 mm 4 mps 761 mmHg 32%
    11:00 -8°C° 0 mm 4 mps 761 mmHg 32%
    12:00 -7°C° 0 mm 4 mps 760 mmHg 32%
    13:00 -7°C° 0 mm 4 mps 760 mmHg 33%
    14:00 -5°C° 0 mm 4 mps 760 mmHg 35%
    15:00 -4°C° 0 mm 4 mps 759 mmHg 33%
    16:00 -5°C° 0 mm 4 mps 759 mmHg 35%
    17:00 -5°C° 0 mm 4 mps 759 mmHg 36%
    18:00 -6°C° 0 mm 3 mps 759 mmHg 38%
    19:00 -6°C° 0 mm 3 mps 759 mmHg 38%
    20:00 -7°C° 0 mm 4 mps 758 mmHg 38%
    21:00 -7°C° 0 mm 4 mps 758 mmHg 38%
    22:00 -7°C° 0 mm 3 mps 758 mmHg 37%
    23:00 -7°C° 0 mm 3 mps 757 mmHg 36%

    Tomorrow, 14 November, Wednesday

    Time Temperature Precipitation Wind Pressure Humidity
    00:00 -7°C° 0 mm 3 mps 757 mmHg 36%
    01:00 -7°C° 0 mm 3 mps 757 mmHg 36%
    02:00 -7°C° 0 mm 3 mps 756 mmHg 37%
    03:00 -7°C° 0 mm 3 mps 756 mmHg 37%
    04:00 -7°C° 0 mm 3 mps 756 mmHg 39%
    05:00 -7°C° 0 mm 3 mps 755 mmHg 41%
    06:00 -8°C° 0 mm 3 mps 755 mmHg 43%
    07:00 -8°C° 0 mm 4 mps 755 mmHg 45%
    08:00 -8°C° 0 mm 4 mps 754 mmHg 48%
    09:00 -8°C° 0 mm 4 mps 754 mmHg 50%
    10:00 -7°C° 0 mm 4 mps 754 mmHg 51%
    11:00 -4°C° 0 mm 4 mps 753 mmHg 52%
    12:00 -3°C° 0 mm 4 mps 753 mmHg 52%
    13:00 -3°C° 0 mm 4 mps 753 mmHg 52%
    14:00 -2°C° 0 mm 4 mps 752 mmHg 53%
    15:00 -2°C° 0 mm 4 mps 752 mmHg 53%
    16:00 -2°C° 0 mm 4 mps 752 mmHg 57%
    17:00 -3°C° 0 mm 4 mps 752 mmHg 62%
    18:00 -4°C° 0 mm 3 mps 752 mmHg 67%
    19:00 -4°C° 0 mm 3 mps 752 mmHg 70%
    20:00 -4°C° 0 mm 4 mps 752 mmHg 73%
    21:00 -4°C° 0 mm 4 mps 752 mmHg 76%
    22:00 -4°C° 0 mm 4 mps 752 mmHg 79%
    23:00 -5°C° 0 mm 4 mps 752 mmHg 82%

    Day after tomorrow, 15 November, Thursday

    Time Temperature Precipitation Wind Pressure Humidity
    00:00 -5°C° 0 mm 4 mps 752 mmHg 86%
    01:00 -4°C° 0 mm 3 mps 752 mmHg 86%
    02:00 -4°C° 0 mm 3 mps 752 mmHg 87%
    03:00 -4°C° 0 mm 3 mps 752 mmHg 87%
    04:00 -4°C° 0 mm 3 mps 752 mmHg 87%
    05:00 -4°C° 0 mm 3 mps 752 mmHg 87%
    06:00 -4°C° 0 mm 3 mps 753 mmHg 87%
    07:00 -4°C° 0 mm 3 mps 753 mmHg 84%
    08:00 -5°C° 0 mm 3 mps 753 mmHg 82%
    09:00 -5°C° 0 mm 3 mps 754 mmHg 80%
    10:00 -4°C° 0 mm 4 mps 754 mmHg 73%
    11:00 -3°C° 0 mm 4 mps 754 mmHg 66%
    12:00 -2°C° 0 mm 4 mps 754 mmHg 59%
    13:00 -1°C° 0 mm 4 mps 754 mmHg 57%
    14:00 -1°C° 0 mm 4 mps 754 mmHg 55%
    15:00 -1°C° 0 mm 4 mps 754 mmHg 53%
    16:00 -2°C° 0 mm 4 mps 754 mmHg 55%
    17:00 -2°C° 0 mm 3 mps 755 mmHg 58%
    18:00 -4°C° 0 mm 3 mps 755 mmHg 61%
    19:00 -4°C° 0 mm 3 mps 755 mmHg 58%
    20:00 -4°C° 0 mm 3 mps 756 mmHg 56%
    21:00 -5°C° 0 mm 3 mps 756 mmHg 53%
    22:00 -5°C° 0 mm 3 mps 756 mmHg 50%
    23:00 -5°C° 0 mm 3 mps 756 mmHg 46%

    16 November, Friday

    Time Temperature Precipitation Wind Pressure Humidity
    00:00 -5°C° 0 mm 3 mps 757 mmHg 43%
    01:00 -5°C° 0 mm 3 mps 757 mmHg 42%
    02:00 -5°C° 0 mm 3 mps 757 mmHg 41%
    03:00 -5°C° 0 mm 3 mps 757 mmHg 40%
    04:00 -5°C° 0 mm 3 mps 757 mmHg 41%
    05:00 -7°C° 0 mm 4 mps 757 mmHg 41%
    06:00 -7°C° 0 mm 4 mps 757 mmHg 41%
    07:00 -5°C° 0 mm 4 mps 757 mmHg 39%
    08:00 -5°C° 0 mm 4 mps 758 mmHg 37%
    09:00 -5°C° 0 mm 4 mps 758 mmHg 35%
    10:00 -4°C° 0 mm 4 mps 758 mmHg 31%
    11:00 -4°C° 0 mm 5 mps 758 mmHg 27%
    12:00 -2°C° 0 mm 5 mps 758 mmHg 23%
    13:00 -1°C° 0 mm 5 mps 758 mmHg 23%
    14:00 -1°C° 0 mm 5 mps 758 mmHg 23%
    15:00 -1°C° 0 mm 4 mps 758 mmHg 23%
    16:00 -2°C° 0 mm 4 mps 758 mmHg 26%
    17:00 -3°C° 0 mm 4 mps 758 mmHg 28%
    18:00 -4°C° 0 mm 4 mps 758 mmHg 31%
    19:00 -4°C° 0 mm 4 mps 758 mmHg 31%
    20:00 -4°C° 0 mm 4 mps 758 mmHg 32%
    21:00 -5°C° 0 mm 4 mps 758 mmHg 32%
    22:00 -5°C° 0 mm 4 mps 758 mmHg 32%
    23:00 -5°C° 0 mm 3 mps 758 mmHg 33%

    17 November, Saturday

    Time Temperature Precipitation Wind Pressure Humidity
    00:00 -5°C° 0 mm 3 mps 758 mmHg 33%
    01:00 -5°C° 0 mm 3 mps 758 mmHg 34%
    02:00 -5°C° 0 mm 3 mps 758 mmHg 34%
    03:00 -6°C° 0 mm 3 mps 758 mmHg 34%
    04:00 -6°C° 0 mm 3 mps 757 mmHg 35%
    05:00 -6°C° 0 mm 3 mps 757 mmHg 35%
    06:00 -6°C° 0 mm 3 mps 757 mmHg 35%
    07:00 -6°C° 0 mm 3 mps 757 mmHg 34%
    08:00 -6°C° 0 mm 3 mps 757 mmHg 33%
    09:00 -5°C° 0 mm 3 mps 757 mmHg 32%
    10:00 -4°C° 0 mm 3 mps 757 mmHg 29%
    11:00 -2°C° 0 mm 3 mps 756 mmHg 27%
    12:00 -1°C° 0 mm 3 mps 756 mmHg 24%
    13:00 0°C° 0 mm 3 mps 756 mmHg 25%
    14:00 +1°C° 0 mm 2 mps 755 mmHg 25%
    15:00 +1°C° 0 mm 2 mps 755 mmHg 25%
    16:00 -1°C° 0 mm 2 mps 754 mmHg 27%
    17:00 -2°C° 0 mm 2 mps 754 mmHg 28%
    18:00 -3°C° 0 mm 2 mps 754 mmHg 30%
    19:00 -3°C° 0 mm 2 mps 753 mmHg 29%
    20:00 -1°C° 0 mm 1 mps 753 mmHg 29%
    21:00 -2°C° 0 mm 1 mps 753 mmHg 28%
    22:00 -2°C° 0 mm 1 mps 752 mmHg 28%
    23:00 -2°C° 0 mm 1 mps 751 mmHg 28%

    18 November, Sunday

    Time Temperature Precipitation Wind Pressure Humidity
    00:00 -2°C° 0 mm 1 mps 751 mmHg 27%
    01:00 -2°C° 0 mm 1 mps 750 mmHg 27%
    02:00 -4°C° 0 mm 2 mps 750 mmHg 28%
    03:00 -4°C° 0 mm 2 mps 749 mmHg 28%
    04:00 -4°C° 0 mm 2 mps 748 mmHg 29%
    05:00 -5°C° 0 mm 2 mps 747 mmHg 29%
    06:00 -6°C° 0 mm 3 mps 747 mmHg 29%
    07:00 -5°C° 0 mm 3 mps 746 mmHg 31%
    08:00 -5°C° 0 mm 3 mps 746 mmHg 32%
    09:00 -5°C° 0 mm 3 mps 745 mmHg 33%
    10:00 -4°C° 0.1 mm 3 mps 745 mmHg 35%
    11:00 -3°C° 0.1 mm 4 mps 744 mmHg 37%
    12:00 -3°C° 0.1 mm 4 mps 744 mmHg 38%
    13:00 -2°C° 0.1 mm 4 mps 743 mmHg 41%
    14:00 -1°C° 0.1 mm 3 mps 743 mmHg 44%
    15:00 -1°C° 0.1 mm 3 mps 743 mmHg 47%
    16:00 -2°C° 0.1 mm 3 mps 743 mmHg 50%
    17:00 -2°C° 0.1 mm 3 mps 743 mmHg 52%
    18:00 -4°C° 0.1 mm 3 mps 743 mmHg 55%
    19:00 -4°C° 0 mm 3 mps 743 mmHg 55%
    20:00 -4°C° 0 mm 3 mps 743 mmHg 55%
    21:00 -4°C° 0 mm 3 mps 743 mmHg 55%
    22:00 -4°C° 0 mm 3 mps 743 mmHg 55%
    23:00 -4°C° 0 mm 3 mps 744 mmHg 54%
    Show more